Weather History for Marfa, TX

Change the Weather History Date:

Monday, May 26, 2014

  Actual Average Record
Temperature  
Mean Temperature 66 °F -  
Max Temperature 84 °F 85 °F 93 °F (2001)
Min Temperature 48 °F 53 °F 44 °F (2011)
Cooling Degree Days 1    
Growing Degree Days 16 (Base 50)    
Moisture  
Dew Point 40 °F    
Average Humidity 42    
Maximum Humidity 82    
Minimum Humidity 15    
Precipitation  
Precipitation 0.00 in - - ()
Sea Level Pressure  
Sea Level Pressure 30.10 in    
Wind  
Wind Speed 8 mph (WNW)    
Max Wind Speed 22 mph    
Max Gust Speed 30 mph    
Visibility 10 miles    
Events      
Averages and records for this station are not official NWS values.
T = Trace of Precipitation, MM = Missing Value Source: NWS Daily Summary

Daily Weather History Graph

Daily Weather History Graph

Search for Another Location

Airport:

Trip Planner

Search our weather history database for the weather conditions in past years. The results will help you decide how hot, cold, wet, or windy it might be!

Date:

Astronomy

May. 26, 2014 Rise Set
Actual Time 6:56 AM CDT 8:50 PM CDT
Civil Twilight 6:29 AM CDT 9:17 PM CDT
Nautical Twilight 5:57 AM CDT 9:49 PM CDT
Astronomical Twilight 5:22 AM CDT 10:24 PM CDT
Moon 5:29 AM CDT (5/26) 7:03 PM CDT (5/26)
Length of Visible Light 14h 47m
Length of Day
13h 53m
Waning Crescent, 5% of the Moon is Illuminated
May 26
Waning Crescent
May 28
New
Jun 5
First Quarter
Jun 12
Full
Jun 19
Last Quarter

Hourly Weather History & Observations

Time (CDT) Temp. Dew Point Humidity Pressure Visibility Wind Dir Wind Speed Gust Speed Precip Events Conditions
12:15 AM 66.2 °F 55.4 °F 68% 30.10 in 10.0 mi SE 4.6 mph - N/A   Mostly Cloudy
12:35 AM 66.2 °F 53.6 °F 64% 30.09 in 10.0 mi SE 12.7 mph - N/A   Scattered Clouds
12:55 AM 66.2 °F 53.6 °F 64% 30.07 in 10.0 mi ESE 8.1 mph - N/A   Partly Cloudy
1:15 AM 66.2 °F 51.8 °F 60% 30.08 in 10.0 mi SE 6.9 mph - N/A   Clear
1:35 AM 66.2 °F 42.8 °F 43% 30.08 in 10.0 mi SE 5.8 mph - N/A   Clear
1:55 AM 64.4 °F 42.8 °F 45% 30.06 in 10.0 mi NE 6.9 mph - N/A   Partly Cloudy
2:15 AM 62.6 °F 42.8 °F 48% 30.07 in 10.0 mi NNE 3.5 mph - N/A   Partly Cloudy
2:35 AM 60.8 °F 48.2 °F 63% 30.06 in 10.0 mi NNW 5.8 mph - N/A   Clear
2:55 AM 59.0 °F 51.8 °F 77% 30.07 in 10.0 mi NNW 4.6 mph - N/A   Clear
3:15 AM 57.2 °F 50.0 °F 77% 30.07 in 10.0 mi NNW 9.2 mph - N/A   Clear
3:35 AM 57.2 °F 48.2 °F 72% 30.07 in 10.0 mi NNW 9.2 mph - N/A   Clear
3:55 AM 57.2 °F 48.2 °F 72% 30.07 in 10.0 mi NW 4.6 mph - N/A   Clear
4:15 AM 55.4 °F 48.2 °F 77% 30.07 in 10.0 mi NW 3.5 mph - N/A   Clear
4:35 AM 53.6 °F 48.2 °F 82% 30.07 in 10.0 mi North 3.5 mph - N/A   Clear
4:55 AM 53.6 °F 48.2 °F 82% 30.07 in 10.0 mi North 4.6 mph - N/A   Clear
5:15 AM 53.6 °F 48.2 °F 82% 30.07 in 10.0 mi Calm Calm - N/A   Clear
5:35 AM 51.8 °F 44.6 °F 76% 30.08 in 10.0 mi South 3.5 mph - N/A   Clear
5:55 AM 51.8 °F 44.6 °F 76% 30.09 in 10.0 mi Calm Calm - N/A   Clear
6:15 AM 53.6 °F 42.8 °F 67% 30.09 in 10.0 mi SSE 3.5 mph - N/A   Clear
6:35 AM 53.6 °F 39.2 °F 58% 30.10 in 10.0 mi Calm Calm - N/A   Clear
6:55 AM 50.0 °F 39.2 °F 66% 30.10 in 10.0 mi ENE 3.5 mph - N/A   Clear
7:15 AM 48.2 °F 41.0 °F 76% 30.11 in 10.0 mi Calm Calm - N/A   Clear
7:35 AM 50.0 °F 44.6 °F 82% 30.11 in 10.0 mi North 3.5 mph - N/A   Clear
7:55 AM 53.6 °F 46.4 °F 77% 30.12 in 10.0 mi Calm Calm - N/A   Clear
8:15 AM 57.2 °F 46.4 °F 67% 30.13 in 10.0 mi Calm Calm - N/A   Clear
8:35 AM 60.8 °F 48.2 °F 63% 30.13 in 10.0 mi Calm Calm - N/A   Clear
8:55 AM 62.6 °F 51.8 °F 68% 30.13 in 10.0 mi Calm Calm - N/A   Clear
9:15 AM 62.6 °F 51.8 °F 68% 30.13 in 10.0 mi SSE 3.5 mph - N/A   Clear
9:35 AM 64.4 °F 51.8 °F 64% 30.14 in 10.0 mi South 3.5 mph - N/A   Clear
10:15 AM 69.8 °F 51.8 °F 53% 30.14 in 10.0 mi SSW 5.8 mph - N/A   Clear
10:35 AM 71.6 °F 50.0 °F 46% 30.14 in 10.0 mi South 4.6 mph - N/A   Clear
10:55 AM 73.4 °F 44.6 °F 36% 30.13 in 10.0 mi South 8.1 mph - N/A   Clear
11:15 AM 77.0 °F 35.6 °F 22% 30.13 in 10.0 mi WSW 11.5 mph - N/A   Clear
11:35 AM 78.8 °F 35.6 °F 21% 30.13 in 10.0 mi WNW 13.8 mph - N/A   Clear
11:55 AM 78.8 °F 35.6 °F 21% 30.12 in 10.0 mi WSW 21.9 mph 27.6 mph N/A   Clear
12:15 PM 80.6 °F 35.6 °F 20% 30.13 in 10.0 mi West 16.1 mph 23.0 mph N/A   Clear
12:35 PM 80.6 °F 33.8 °F 18% 30.12 in 10.0 mi WSW 12.7 mph 20.7 mph N/A   Clear
12:55 PM 82.4 °F 35.6 °F 19% 30.12 in 10.0 mi West 19.6 mph 26.5 mph N/A   Clear
1:15 PM 80.6 °F 33.8 °F 18% 30.11 in 10.0 mi West 12.7 mph 25.3 mph N/A   Clear
1:35 PM 82.4 °F 35.6 °F 19% 30.11 in 10.0 mi West 16.1 mph 24.2 mph N/A   Clear
1:55 PM 82.4 °F 33.8 °F 17% 30.10 in 10.0 mi West 17.3 mph 21.9 mph N/A   Clear
2:35 PM 82.4 °F 33.8 °F 17% 30.10 in 10.0 mi West 15.0 mph 20.7 mph N/A   Clear
2:55 PM 82.4 °F 33.8 °F 17% 30.10 in 10.0 mi WNW 13.8 mph 26.5 mph N/A   Clear
3:15 PM 82.4 °F 33.8 °F 17% 30.09 in 10.0 mi WNW 15.0 mph 20.7 mph N/A   Partly Cloudy
3:35 PM 82.4 °F 33.8 °F 17% 30.09 in 10.0 mi West 21.9 mph 26.5 mph N/A   Partly Cloudy
3:55 PM 84.2 °F 33.8 °F 16% 30.09 in 10.0 mi West 17.3 mph 29.9 mph N/A   Clear
4:15 PM 84.2 °F 32.0 °F 15% 30.09 in 10.0 mi WNW 12.7 mph 23.0 mph N/A   Clear
4:35 PM 84.2 °F 33.8 °F 16% 30.08 in 10.0 mi WSW 16.1 mph 26.5 mph N/A   Clear
4:55 PM 82.4 °F 32.0 °F 16% 30.07 in 10.0 mi West 17.3 mph 20.7 mph N/A   Clear
5:15 PM 84.2 °F 33.8 °F 16% 30.07 in 10.0 mi West 13.8 mph 21.9 mph N/A   Clear
5:35 PM 84.2 °F 33.8 °F 16% 30.07 in 10.0 mi West 16.1 mph - N/A   Partly Cloudy
5:55 PM 84.2 °F 33.8 °F 16% 30.07 in 10.0 mi West 19.6 mph 24.2 mph N/A   Clear
6:15 PM 82.4 °F 32.0 °F 16% 30.06 in 10.0 mi WSW 8.1 mph - N/A   Scattered Clouds
6:35 PM 84.2 °F 33.8 °F 16% 30.06 in 10.0 mi WNW 16.1 mph - N/A   Partly Cloudy
6:55 PM 82.4 °F 32.0 °F 16% 30.06 in 10.0 mi NW 6.9 mph - N/A   Partly Cloudy
7:15 PM 82.4 °F 32.0 °F 16% 30.06 in 10.0 mi West 6.9 mph - N/A   Mostly Cloudy
7:35 PM 82.4 °F 32.0 °F 16% 30.07 in 10.0 mi WNW 10.4 mph - N/A   Mostly Cloudy
7:55 PM 82.4 °F 32.0 °F 16% 30.07 in 10.0 mi WNW 11.5 mph - N/A   Scattered Clouds
8:15 PM 80.6 °F 33.8 °F 18% 30.08 in 10.0 mi NW 8.1 mph - N/A   Scattered Clouds
8:35 PM 80.6 °F 33.8 °F 18% 30.08 in 10.0 mi WNW 10.4 mph - N/A   Scattered Clouds
8:55 PM 78.8 °F 33.8 °F 20% 30.09 in 10.0 mi WNW 8.1 mph - N/A   Partly Cloudy
9:15 PM 75.2 °F 33.8 °F 22% 30.10 in 10.0 mi NW 6.9 mph - N/A   Clear
9:35 PM 71.6 °F 35.6 °F 27% 30.10 in 10.0 mi NNW 6.9 mph - N/A   Clear
9:55 PM 69.8 °F 35.6 °F 28% 30.11 in 10.0 mi NNW 6.9 mph - N/A   Clear
10:15 PM 68.0 °F 37.4 °F 33% 30.11 in 10.0 mi NNW 8.1 mph - N/A   Clear
10:35 PM 66.2 °F 37.4 °F 35% 30.12 in 10.0 mi NNE 6.9 mph - N/A   Clear
10:55 PM 68.0 °F 37.4 °F 33% 30.13 in 10.0 mi NNE 5.8 mph - N/A   Clear
11:15 PM 66.2 °F 37.4 °F 35% 30.14 in 10.0 mi NE 9.2 mph - N/A   Clear
11:35 PM 64.4 °F 39.2 °F 40% 30.14 in 10.0 mi NE 10.4 mph - N/A   Clear
11:55 PM 68.0 °F 39.2 °F 35% 30.14 in 10.0 mi NE 8.1 mph - N/A   Clear